Weather History for KSWO - February, 2013

Change the Weather History Date:

Monday, February 25, 2013

  Actual Average Record
Temperature  
Mean Temperature 40 °F -  
Max Temperature 46 °F 51 °F 75 °F (1998)
Min Temperature 33 °F 29 °F 12 °F (2003)
Degree Days  
Heating Degree Days 26    
Moisture  
Dew Point 34 °F    
Average Humidity 90    
Maximum Humidity 100    
Minimum Humidity 63    
Precipitation  
Precipitation 1.09 in - - ()
Sea Level Pressure  
Sea Level Pressure 29.62 in    
Wind  
Wind Speed 15 mph (NNE)    
Max Wind Speed 26 mph    
Max Gust Speed 33 mph    
Visibility 4 miles    
Events Fog , Rain , Snow    
Averages and records for this station are not official NWS values.
T = Trace of Precipitation, MM = Missing Value Source: NWS Daily Summary

Daily Weather History Graph

Daily Weather History Graph

Search for Another Location

Airport or City:

Trip Planner

Search our weather history database for the weather conditions in past years. The results will help you decide how hot, cold, wet, or windy it might be!

Date:

Astronomy

Feb. 25, 2013 Rise Set
Actual Time 7:03 AM CST 6:19 PM CST
Civil Twilight 6:37 AM CST 6:45 PM CST
Nautical Twilight 6:07 AM CST 7:15 PM CST
Astronomical Twilight 5:38 AM CST 7:45 PM CST
Moon 6:32 PM CST (2/25) 6:35 AM CST (2/25)
Length of Visible Light 12h 08m
Length of Day
11h 16m
Full, 100% of the Moon is Illuminated
Feb 25
Full
Feb 25
Full
Mar 4
Last Quarter
Mar 11
New
Mar 19
First Quarter

Hourly Weather History & Observations

Time (CST) Temp. Windchill Dew Point Humidity Pressure Visibility Wind Dir Wind Speed Gust Speed Precip Events Conditions
12:53 AM 46.9 °F - 35.1 °F 63% 29.77 in 10.0 mi East 9.2 mph - N/A   Mostly Cloudy
1:53 AM 46.9 °F - 35.1 °F 63% 29.76 in 10.0 mi East 10.4 mph - N/A   Overcast
2:53 AM 46.0 °F 41.9 °F 35.1 °F 66% 29.76 in 10.0 mi ENE 8.1 mph - N/A   Overcast
3:53 AM 44.1 °F 39.5 °F 37.0 °F 76% 29.75 in 10.0 mi NNE 8.1 mph - 0.00 in Rain Light Rain
4:53 AM 43.0 °F 36.4 °F 35.1 °F 74% 29.68 in 10.0 mi ENE 12.7 mph - 0.01 in   Overcast
5:53 AM 44.1 °F 38.1 °F 35.1 °F 71% 29.68 in 10.0 mi NNE 11.5 mph - N/A   Overcast
6:53 AM 41.0 °F 38.0 °F 37.0 °F 86% 29.74 in 4.0 mi North 4.6 mph - 0.06 in Rain Rain
7:53 AM 39.0 °F 30.3 °F 37.0 °F 93% 29.72 in 4.0 mi North 16.1 mph - 0.26 in Rain Heavy Rain
8:23 AM 37.4 °F 26.9 °F 37.4 °F 100% 29.71 in 5.0 mi North 20.7 mph - 0.09 in Rain Rain
8:53 AM 37.9 °F 27.1 °F 36.0 °F 93% 29.69 in 5.0 mi NNE 23.0 mph 27.6 mph 0.14 in Rain Light Rain
9:53 AM 37.0 °F 27.0 °F 35.1 °F 93% 29.68 in 3.0 mi NNE 18.4 mph 25.3 mph 0.13 in Rain Rain
10:03 AM 37.4 °F 27.8 °F 35.6 °F 93% 29.67 in 2.5 mi NNE 17.3 mph 25.3 mph 0.06 in Rain Heavy Rain
10:12 AM 37.4 °F 27.2 °F 35.6 °F 93% 29.67 in 4.0 mi NNE 19.6 mph 26.5 mph 0.07 in Rain Rain
10:29 AM 37.4 °F 27.5 °F 35.6 °F 93% 29.67 in 5.0 mi NNE 18.4 mph 26.5 mph 0.08 in Rain Light Rain
10:38 AM 37.4 °F 27.2 °F 35.6 °F 93% 29.65 in 5.0 mi NNE 19.6 mph 26.5 mph 0.08 in Rain Light Rain
10:53 AM 37.9 °F 28.2 °F 37.0 °F 97% 29.65 in 3.0 mi NNE 18.4 mph - 0.09 in Rain Light Rain
11:53 AM 39.0 °F 27.8 °F 36.0 °F 89% 29.59 in 5.0 mi NNE 26.5 mph 33.4 mph 0.02 in Rain Light Rain
12:53 PM 37.9 °F 26.8 °F 35.1 °F 89% 29.57 in 7.0 mi NNE 24.2 mph 33.4 mph 0.01 in Rain Light Rain
1:53 PM 37.9 °F 27.6 °F 36.0 °F 93% 29.53 in 8.0 mi NE 20.7 mph 28.8 mph 0.00 in Rain Light Rain
2:53 PM 37.9 °F 28.2 °F 36.0 °F 93% 29.54 in 10.0 mi NE 18.4 mph 25.3 mph 0.00 in   Overcast
3:53 PM 37.9 °F 29.6 °F 36.0 °F 93% 29.53 in 6.0 mi NE 13.8 mph 28.8 mph 0.01 in Rain Light Rain
4:43 PM 35.6 °F 25.9 °F 33.8 °F 93% 29.55 in 1.8 mi NNE 16.1 mph 25.3 mph 0.05 in Rain Heavy Rain
4:53 PM 36.0 °F 26.3 °F 34.0 °F 93% 29.56 in 2.5 mi NNE 16.1 mph - 0.06 in Rain Light Rain
5:02 PM 35.6 °F 26.2 °F 33.8 °F 93% 29.55 in 3.0 mi North 15.0 mph 20.7 mph 0.01 in Rain Light Rain
5:12 PM 35.6 °F 25.9 °F 33.8 °F 93% 29.55 in 2.5 mi North 16.1 mph - 0.02 in Rain Light Rain
5:27 PM 35.6 °F 26.2 °F 33.8 °F 93% 29.55 in 1.5 mi North 15.0 mph 25.3 mph 0.03 in Snow Light Snow
5:53 PM 33.1 °F 23.4 °F 32.0 °F 96% 29.57 in 0.8 mi North 13.8 mph - 0.05 in Snow Light Snow
6:53 PM 33.1 °F 23.0 °F 32.0 °F 96% 29.60 in 0.5 mi North 15.0 mph 20.7 mph 0.06 in Fog , Snow Snow
7:53 PM 33.1 °F 21.9 °F 32.0 °F 96% 29.60 in 0.5 mi North 18.4 mph 27.6 mph 0.14 in Fog , Snow Snow
8:14 PM 33.8 °F 22.5 °F 32.0 °F 93% 29.58 in 1.0 mi North 19.6 mph 27.6 mph 0.02 in Snow Light Snow
8:33 PM 33.8 °F 22.5 °F 32.0 °F 93% 29.58 in 0.8 mi NNW 19.6 mph 26.5 mph 0.03 in Snow Light Snow
8:42 PM 33.8 °F 23.5 °F 32.0 °F 93% 29.58 in 1.0 mi NNW 16.1 mph 27.6 mph 0.03 in Snow Light Snow
8:53 PM 33.1 °F 22.2 °F 32.0 °F 96% 29.59 in 1.2 mi North 17.3 mph 27.6 mph 0.03 in Snow Light Snow
9:05 PM 33.8 °F 21.6 °F 32.0 °F 93% 29.58 in 0.8 mi North 23.0 mph 29.9 mph 0.00 in Snow Light Snow
9:19 PM 33.8 °F 22.5 °F 32.0 °F 93% 29.58 in 1.0 mi North 19.6 mph 32.2 mph 0.01 in Snow Light Snow
9:53 PM 33.1 °F 21.2 °F 32.0 °F 96% 29.60 in 1.2 mi North 20.7 mph 31.1 mph 0.01 in Snow Light Snow
10:39 PM 33.8 °F 21.6 °F 32.0 °F 93% 29.59 in 2.5 mi North 23.0 mph 29.9 mph 0.01 in Snow Light Snow
10:53 PM 34.0 °F 21.8 °F 32.0 °F 92% 29.60 in 3.0 mi NNW 23.0 mph 32.2 mph 0.01 in Snow Light Snow
11:02 PM 33.8 °F 21.9 °F 32.0 °F 93% 29.59 in 2.0 mi North 21.9 mph 29.9 mph 0.00 in Snow Light Snow
11:10 PM 33.8 °F 21.3 °F 32.0 °F 93% 29.59 in 1.5 mi North 24.2 mph 32.2 mph 0.00 in Snow Light Snow
11:29 PM 33.8 °F 22.5 °F 32.0 °F 93% 29.59 in 2.0 mi North 19.6 mph 32.2 mph 0.00 in Snow Light Snow
11:50 PM 33.8 °F 22.5 °F 32.0 °F 93% 29.60 in 3.0 mi NNW 19.6 mph 28.8 mph 0.00 in Snow Light Snow
11:53 PM 34.0 °F 22.7 °F 32.0 °F 92% 29.60 in 2.5 mi NNW 19.6 mph 28.8 mph 0.00 in Snow Light Snow